Year,Month,Day,Hour,Minute,Value (Times are PST for temperature in C)
2015,04,25,18,16,12.40
2015,04,25,18,17,12.40
2015,04,25,18,18,12.40
2015,04,25,18,19,12.40
2015,04,25,18,20,12.40
2015,04,25,18,21,12.40
2015,04,25,18,22,12.40
2015,04,25,18,23,12.40
2015,04,25,18,24,12.40
2015,04,25,18,25,12.40
2015,04,25,18,26,12.30
2015,04,25,18,27,12.40
2015,04,25,18,28,12.40
2015,04,25,18,29,12.40
2015,04,25,18,30,12.40
2015,04,25,18,31,12.40
2015,04,25,18,32,12.30
2015,04,25,18,33,12.20
2015,04,25,18,34,12.20
2015,04,25,18,35,12.20
2015,04,25,18,36,12.20
2015,04,25,18,37,12.20
2015,04,25,18,38,12.20
2015,04,25,18,39,12.20
2015,04,25,18,40,12.20
2015,04,25,18,41,12.20
2015,04,25,18,42,12.20
2015,04,25,18,43,12.20
2015,04,25,18,44,12.20
2015,04,25,18,45,12.20
2015,04,25,18,46,12.20
2015,04,25,18,47,12.20
2015,04,25,18,48,12.20
2015,04,25,18,49,12.20
2015,04,25,18,50,12.20
2015,04,25,18,51,12.30
2015,04,25,18,52,12.30
2015,04,25,18,53,12.30
2015,04,25,18,54,12.30
2015,04,25,18,55,12.30
2015,04,25,18,56,12.20
2015,04,25,18,57,12.20
2015,04,25,18,58,12.20
2015,04,25,18,59,12.20
2015,04,25,19,00,12.10
2015,04,25,19,01,12.10
2015,04,25,19,02,12.10
2015,04,25,19,03,12.00
2015,04,25,19,04,11.90
2015,04,25,19,05,11.90
2015,04,25,19,06,11.90
2015,04,25,19,07,11.90
2015,04,25,19,08,11.90
2015,04,25,19,09,11.90
2015,04,25,19,10,11.90
2015,04,25,19,11,11.90
2015,04,25,19,12,11.90
2015,04,25,19,13,11.90
2015,04,25,19,14,11.90
2015,04,25,19,15,11.80
2015,04,25,19,16,11.80
2015,04,25,19,17,11.80
2015,04,25,19,18,11.80
2015,04,25,19,19,11.80
2015,04,25,19,20,11.70
2015,04,25,19,21,11.70
2015,04,25,19,22,11.60
2015,04,25,19,23,11.60
2015,04,25,19,24,11.50
2015,04,25,19,25,11.50
2015,04,25,19,26,11.40
2015,04,25,19,27,11.40
2015,04,25,19,28,11.30
2015,04,25,19,29,11.30
2015,04,25,19,30,11.30
2015,04,25,19,31,11.20
2015,04,25,19,32,11.20
2015,04,25,19,33,11.20
2015,04,25,19,34,11.20
2015,04,25,19,35,11.20
2015,04,25,19,36,11.10
2015,04,25,19,37,11.00
2015,04,25,19,38,11.00
2015,04,25,19,39,10.90
2015,04,25,19,40,10.90
2015,04,25,19,41,10.90
2015,04,25,19,42,10.90
2015,04,25,19,43,10.80
2015,04,25,19,44,10.80
2015,04,25,19,45,10.80
2015,04,25,19,46,10.80
2015,04,25,19,47,10.80
2015,04,25,19,48,10.70
2015,04,25,19,49,10.70
2015,04,25,19,50,10.70
2015,04,25,19,51,10.70
2015,04,25,19,52,10.70
2015,04,25,19,53,10.70
2015,04,25,19,54,10.60
2015,04,25,19,55,10.50
2015,04,25,19,56,10.50
2015,04,25,19,57,10.40
2015,04,25,19,58,10.40
2015,04,25,19,59,10.40
2015,04,25,20,00,10.30
2015,04,25,20,01,10.30
2015,04,25,20,02,10.30
2015,04,25,20,03,10.30
2015,04,25,20,04,10.20
2015,04,25,20,05,10.20
2015,04,25,20,06,10.20
2015,04,25,20,07,10.20
2015,04,25,20,08,10.10
2015,04,25,20,09,10.00
2015,04,25,20,10,10.00
2015,04,25,20,11,10.00
2015,04,25,20,12,10.00
2015,04,25,20,13,9.80
2015,04,25,20,14,9.80
2015,04,25,20,15,9.80
2015,04,25,20,16,9.70
2015,04,25,20,17,9.70
2015,04,25,20,18,9.70
2015,04,25,20,19,9.60
2015,04,25,20,20,9.60
2015,04,25,20,21,9.60
2015,04,25,20,22,9.60
2015,04,25,20,23,9.60
2015,04,25,20,24,9.60
2015,04,25,20,25,9.60
2015,04,25,20,26,9.60
2015,04,25,20,27,9.60
2015,04,25,20,28,9.50
2015,04,25,20,29,9.50
2015,04,25,20,30,9.50
2015,04,25,20,31,9.40
2015,04,25,20,32,9.30
2015,04,25,20,33,9.30
2015,04,25,20,34,9.20
2015,04,25,20,35,9.20
2015,04,25,20,36,9.10
2015,04,25,20,37,9.00
2015,04,25,20,38,8.90
2015,04,25,20,39,8.90
2015,04,25,20,40,8.90
2015,04,25,20,41,8.80
2015,04,25,20,42,8.70
2015,04,25,20,43,8.70
2015,04,25,20,44,8.60
2015,04,25,20,45,8.50
2015,04,25,20,46,8.40
2015,04,25,20,47,8.40
2015,04,25,20,48,8.30
2015,04,25,20,49,8.20
2015,04,25,20,50,8.20
2015,04,25,20,51,8.10
2015,04,25,20,52,8.10
2015,04,25,20,53,8.00
2015,04,25,20,54,7.90
2015,04,25,20,55,7.80
2015,04,25,20,56,7.70
2015,04,25,20,57,7.70
2015,04,25,20,58,7.60
2015,04,25,20,59,7.50
2015,04,25,21,00,7.40
2015,04,25,21,01,7.40
2015,04,25,21,02,7.30
2015,04,25,21,03,7.30
2015,04,25,21,04,7.20
2015,04,25,21,05,7.20
2015,04,25,21,06,7.10
2015,04,25,21,07,7.00
2015,04,25,21,08,7.00
2015,04,25,21,09,7.00
2015,04,25,21,10,6.90
2015,04,25,21,11,6.90
2015,04,25,21,12,6.90
2015,04,25,21,13,6.80
2015,04,25,21,14,6.80
2015,04,25,21,15,6.80
2015,04,25,21,16,6.70
2015,04,25,21,17,6.70
2015,04,25,21,18,6.70
2015,04,25,21,19,6.70
2015,04,25,21,20,6.60
2015,04,25,21,21,6.60
2015,04,25,21,22,6.60
2015,04,25,21,23,6.50
2015,04,25,21,24,6.50
2015,04,25,21,25,6.40
2015,04,25,21,26,6.40
2015,04,25,21,27,6.30
2015,04,25,21,28,6.30
2015,04,25,21,29,6.30
2015,04,25,21,30,6.30
2015,04,25,21,31,6.20
2015,04,25,21,32,6.20
2015,04,25,21,33,6.20
2015,04,25,21,34,6.10
2015,04,25,21,35,6.10
2015,04,25,21,36,6.10
2015,04,25,21,37,6.00
2015,04,25,21,38,6.00
2015,04,25,21,39,6.00
2015,04,25,21,40,5.90
2015,04,25,21,41,5.90
2015,04,25,21,42,5.90
2015,04,25,21,43,5.80
2015,04,25,21,44,5.80
2015,04,25,21,45,5.80
2015,04,25,21,46,5.80
2015,04,25,21,47,5.70
2015,04,25,21,48,5.70
2015,04,25,21,49,5.70
2015,04,25,21,50,5.70
2015,04,25,21,51,5.70
2015,04,25,21,52,5.70
2015,04,25,21,53,5.60
2015,04,25,21,54,5.60
2015,04,25,21,55,5.50
2015,04,25,21,56,5.50
2015,04,25,21,57,5.50
2015,04,25,21,58,5.50
2015,04,25,21,59,5.40
2015,04,25,22,00,5.40
2015,04,25,22,01,5.40
2015,04,25,22,02,5.40
2015,04,25,22,03,5.40
2015,04,25,22,04,5.30
2015,04,25,22,05,5.30
2015,04,25,22,06,5.30
2015,04,25,22,07,5.30
2015,04,25,22,08,5.30
2015,04,25,22,09,5.30
2015,04,25,22,10,5.30
2015,04,25,22,11,5.20
2015,04,25,22,12,5.20
2015,04,25,22,13,5.20
2015,04,25,22,14,5.20
2015,04,25,22,15,5.10
2015,04,25,22,16,5.10
2015,04,25,22,17,5.10
2015,04,25,22,18,5.10
2015,04,25,22,19,5.10
2015,04,25,22,20,5.00
2015,04,25,22,21,5.00
2015,04,25,22,22,5.00
2015,04,25,22,23,5.00
2015,04,25,22,24,5.00
2015,04,25,22,25,4.90
2015,04,25,22,26,4.90
2015,04,25,22,27,4.90
2015,04,25,22,28,4.90
2015,04,25,22,29,4.90
2015,04,25,22,30,4.80
2015,04,25,22,31,4.80
2015,04,25,22,32,4.80
2015,04,25,22,33,4.80
2015,04,25,22,34,4.80
2015,04,25,22,35,4.70
2015,04,25,22,36,4.70
2015,04,25,22,37,4.70
2015,04,25,22,38,4.70
2015,04,25,22,39,4.70
2015,04,25,22,40,4.70
2015,04,25,22,41,4.70
2015,04,25,22,42,4.60
2015,04,25,22,43,4.60
2015,04,25,22,44,4.60
2015,04,25,22,45,4.60
2015,04,25,22,46,4.60
2015,04,25,22,47,4.60
2015,04,25,22,48,4.60
2015,04,25,22,49,4.50
2015,04,25,22,50,4.50
2015,04,25,22,51,4.50
2015,04,25,22,52,4.50
2015,04,25,22,53,4.50
2015,04,25,22,54,4.50
2015,04,25,22,55,4.50
2015,04,25,22,56,4.50
2015,04,25,22,57,4.50
2015,04,25,22,58,4.50
2015,04,25,22,59,4.50
2015,04,25,23,00,4.50
2015,04,25,23,01,4.50
2015,04,25,23,02,4.50
2015,04,25,23,03,4.50
2015,04,25,23,04,4.60
2015,04,25,23,05,4.60
2015,04,25,23,06,4.50
2015,04,25,23,07,4.50
2015,04,25,23,08,4.50
2015,04,25,23,09,4.50
2015,04,25,23,10,4.50
2015,04,25,23,11,4.50
2015,04,25,23,12,4.50
2015,04,25,23,13,4.40
2015,04,25,23,14,4.40
2015,04,25,23,15,4.40
2015,04,25,23,16,4.40
2015,04,25,23,17,4.40
2015,04,25,23,18,4.30
2015,04,25,23,19,4.40
2015,04,25,23,20,4.30
2015,04,25,23,21,4.30
2015,04,25,23,22,4.30
2015,04,25,23,23,4.30
2015,04,25,23,24,4.30
2015,04,25,23,25,4.30
2015,04,25,23,26,4.30
2015,04,25,23,27,4.30
2015,04,25,23,28,4.30
2015,04,25,23,29,4.30
2015,04,25,23,30,4.30
2015,04,25,23,31,4.30
2015,04,25,23,32,4.30
2015,04,25,23,33,4.30
2015,04,25,23,34,4.30
2015,04,25,23,35,4.30
2015,04,25,23,36,4.30
2015,04,25,23,37,4.30
2015,04,25,23,38,4.40
2015,04,25,23,39,4.40
2015,04,25,23,40,4.40
2015,04,25,23,41,4.40
2015,04,25,23,42,4.40
2015,04,25,23,43,4.40
2015,04,25,23,44,4.40
2015,04,25,23,45,4.30
2015,04,25,23,46,4.30
2015,04,25,23,47,4.30
2015,04,25,23,48,4.30
2015,04,25,23,49,4.30
2015,04,25,23,50,4.30
2015,04,25,23,51,4.30
2015,04,25,23,52,4.40
2015,04,25,23,53,4.40
2015,04,25,23,54,4.40
2015,04,25,23,55,4.40
2015,04,25,23,56,4.40
2015,04,25,23,57,4.40
2015,04,25,23,58,4.40
2015,04,25,23,59,4.40
